Location: Abraham Lincoln Continuation High School
(33.9711°N, 117.3662°W)
Time: 11:14:57
(UTC+00:00)

Cosmos 1680 Rocket - Visible Passes

Search period start: 20 June 2021 00:00
Search period end: 30 June 2021 00:00
Orbit: 759 x 781 km, 74.1° (Epoch: 19 June)

Date Brightness Start Highest point End Pass type
(mag) Time Alt. Az. Time Alt. Az. Time Alt. Az.
20 Jun 6.2 11:10:00 10° ESE 11:12:24 13° E 11:14:49 10° ENE visible
22 Jun 4.6 11:36:19 10° S 11:41:19 44° ESE 11:46:21 10° NNE visible
23 Jun 5.5 11:00:56 10° SSE 11:05:10 25° E 11:09:26 10° NE visible
24 Jun 6.0 10:26:32 10° SE 10:29:06 14° E 10:31:41 10° ENE visible
24 Jun 3.8 12:05:25 10° SSW 12:10:37 57° WNW 12:15:52 10° N visible
25 Jun 3.6 11:29:07 11° SSW 11:34:17 82° ESE 11:39:37 10° NNE visible
26 Jun 4.4 10:53:56 15° S 10:58:02 45° ESE 11:03:05 10° NNE visible
27 Jun 5.3 10:18:43 15° SE 10:21:53 26° E 10:26:12 10° NE visible
27 Jun 4.5 11:59:05 10° SW 12:03:47 31° WNW 12:08:30 10° N visible
28 Jun 5.9 09:43:26 11° ESE 09:45:48 14° E 09:48:32 10° ENE visible
28 Jun 3.8 11:23:46 20° SW 11:27:20 55° WNW 11:32:34 10° N visible
29 Jun 3.5 10:48:26 32° SSW 10:51:00 85° ESE 10:56:20 10° NNE visible
